Year,Month,Day,Hour,Minute,Value (Times are PST for barometer in hPa)
2017,05,17,00,00,967.49
2017,05,17,00,01,967.49
2017,05,17,00,02,967.57
2017,05,17,00,03,967.63
2017,05,17,00,04,967.62
2017,05,17,00,05,967.54
2017,05,17,00,06,967.36
2017,05,17,00,07,967.40
2017,05,17,00,08,967.50
2017,05,17,00,09,967.57
2017,05,17,00,10,967.69
2017,05,17,00,11,967.67
2017,05,17,00,12,967.76
2017,05,17,00,13,967.83
2017,05,17,00,14,967.83
2017,05,17,00,15,967.80
2017,05,17,00,16,967.81
2017,05,17,00,17,967.86
2017,05,17,00,18,967.90
2017,05,17,00,19,967.93
2017,05,17,00,20,967.94
2017,05,17,00,21,968.03
2017,05,17,00,22,968.03
2017,05,17,00,23,968.08
2017,05,17,00,24,968.16
2017,05,17,00,25,967.93
2017,05,17,00,26,967.98
2017,05,17,00,27,968.16
2017,05,17,00,28,968.10
2017,05,17,00,29,968.08
2017,05,17,00,30,968.20
2017,05,17,00,31,968.14
2017,05,17,00,32,968.14
2017,05,17,00,33,968.14
2017,05,17,00,34,968.17
2017,05,17,00,35,968.17
2017,05,17,00,36,968.14
2017,05,17,00,37,968.18
2017,05,17,00,38,968.31
2017,05,17,00,39,968.36
2017,05,17,00,40,968.27
2017,05,17,00,41,968.31
2017,05,17,00,42,968.45
2017,05,17,00,43,968.30
2017,05,17,00,44,968.28
2017,05,17,00,45,968.36
2017,05,17,00,46,968.25
2017,05,17,00,47,968.34
2017,05,17,00,48,968.36
2017,05,17,00,49,968.31
2017,05,17,00,50,968.38
2017,05,17,00,51,968.53
2017,05,17,00,52,968.49
2017,05,17,00,53,968.62
2017,05,17,00,54,968.47
2017,05,17,00,55,968.77
2017,05,17,00,56,968.52
2017,05,17,00,57,968.60
2017,05,17,00,58,968.55
2017,05,17,00,59,968.69
2017,05,17,01,00,968.74
2017,05,17,01,01,968.75
2017,05,17,01,02,968.85
2017,05,17,01,03,968.86
2017,05,17,01,04,968.72
2017,05,17,01,05,968.98
2017,05,17,01,06,968.95
2017,05,17,01,07,968.90
2017,05,17,01,08,968.79
2017,05,17,01,09,968.89
2017,05,17,01,10,968.95
2017,05,17,01,11,968.89
2017,05,17,01,12,968.99
2017,05,17,01,13,969.09
2017,05,17,01,14,969.21
2017,05,17,01,15,969.06
2017,05,17,01,16,969.16
2017,05,17,01,17,969.22
2017,05,17,01,18,969.14
2017,05,17,01,19,969.05
2017,05,17,01,20,969.14
2017,05,17,01,21,969.04
2017,05,17,01,22,969.24
2017,05,17,01,23,969.10
2017,05,17,01,24,968.97
2017,05,17,01,25,969.12
2017,05,17,01,26,969.08
2017,05,17,01,27,969.06
2017,05,17,01,28,969.18
2017,05,17,01,29,969.22
2017,05,17,01,30,969.19
2017,05,17,01,31,969.31
2017,05,17,01,32,969.17
2017,05,17,01,33,969.37
2017,05,17,01,34,969.07
2017,05,17,01,35,969.27
2017,05,17,01,36,969.13
2017,05,17,01,37,969.25
2017,05,17,01,38,969.25
2017,05,17,01,39,969.25
2017,05,17,01,40,969.20
2017,05,17,01,41,969.39
2017,05,17,01,42,969.35
2017,05,17,01,43,969.35
2017,05,17,01,44,969.40
2017,05,17,01,45,969.51
2017,05,17,01,46,969.41
2017,05,17,01,47,969.23
2017,05,17,01,48,969.30
2017,05,17,01,49,969.34
2017,05,17,01,50,969.23
2017,05,17,01,51,969.32
2017,05,17,01,52,969.29
2017,05,17,01,53,969.32
2017,05,17,01,54,969.30
2017,05,17,01,55,969.45
2017,05,17,01,56,969.39
2017,05,17,01,57,969.46
2017,05,17,01,58,969.48
2017,05,17,01,59,969.40
2017,05,17,02,00,969.48
2017,05,17,02,01,969.39
2017,05,17,02,02,969.33
2017,05,17,02,03,969.59
2017,05,17,02,04,969.62
2017,05,17,02,05,969.53
2017,05,17,02,06,969.63
2017,05,17,02,07,969.59
2017,05,17,02,08,969.55
2017,05,17,02,09,969.36
2017,05,17,02,10,969.47
2017,05,17,02,11,969.68
2017,05,17,02,12,969.59
2017,05,17,02,13,969.66
2017,05,17,02,14,969.66
2017,05,17,02,15,969.69
2017,05,17,02,16,969.69
2017,05,17,02,17,969.73
2017,05,17,02,18,969.72
2017,05,17,02,19,969.63
2017,05,17,02,20,969.66
2017,05,17,02,21,969.66
2017,05,17,02,22,969.66
2017,05,17,02,23,969.64
2017,05,17,02,24,969.73
2017,05,17,02,25,969.82
2017,05,17,02,26,969.77
2017,05,17,02,27,969.84
2017,05,17,02,28,969.93
2017,05,17,02,29,969.90
2017,05,17,02,30,969.83
2017,05,17,02,31,969.80
2017,05,17,02,32,969.90
2017,05,17,02,33,969.93
2017,05,17,02,34,969.95
2017,05,17,02,35,969.91
2017,05,17,02,36,970.02
2017,05,17,02,37,969.91
2017,05,17,02,38,970.00
2017,05,17,02,39,969.95
2017,05,17,02,40,969.84
2017,05,17,02,41,969.96
2017,05,17,02,42,969.93
2017,05,17,02,43,969.91
2017,05,17,02,44,970.06
2017,05,17,02,45,970.00
2017,05,17,02,46,970.02
2017,05,17,02,47,969.94
2017,05,17,02,48,970.00
2017,05,17,02,49,970.00
2017,05,17,02,50,970.01
2017,05,17,02,51,970.11
2017,05,17,02,52,969.97
2017,05,17,02,53,970.16
2017,05,17,02,54,970.03
2017,05,17,02,55,970.03
2017,05,17,02,56,970.00
2017,05,17,02,57,970.02
2017,05,17,02,58,969.93
2017,05,17,02,59,969.91
2017,05,17,03,00,969.96
2017,05,17,03,01,969.96
2017,05,17,03,02,969.95
2017,05,17,03,03,969.87
2017,05,17,03,04,969.94
2017,05,17,03,05,970.00
2017,05,17,03,06,970.02
2017,05,17,03,07,969.97
2017,05,17,03,08,970.10
2017,05,17,03,09,970.12
2017,05,17,03,10,970.03
2017,05,17,03,11,970.08
2017,05,17,03,12,970.13
2017,05,17,03,13,970.10
2017,05,17,03,14,970.14
2017,05,17,03,15,970.23
2017,05,17,03,16,970.20
2017,05,17,03,17,970.20
2017,05,17,03,18,970.21
2017,05,17,03,19,970.27
2017,05,17,03,20,970.23
2017,05,17,03,21,970.23
2017,05,17,03,22,970.23
2017,05,17,03,23,970.20
2017,05,17,03,24,970.15
2017,05,17,03,25,970.32
2017,05,17,03,26,970.19
2017,05,17,03,27,970.33
2017,05,17,03,28,970.24
2017,05,17,03,29,970.34
2017,05,17,03,30,970.30
2017,05,17,03,31,970.30
2017,05,17,03,32,970.33
2017,05,17,03,33,970.23
2017,05,17,03,34,970.27
2017,05,17,03,35,970.24
2017,05,17,03,36,970.30
2017,05,17,03,37,970.27
2017,05,17,03,38,970.30
2017,05,17,03,39,970.30
2017,05,17,03,40,970.33
2017,05,17,03,41,970.21
2017,05,17,03,42,970.28
2017,05,17,03,43,970.39
2017,05,17,03,44,970.27
2017,05,17,03,45,970.24
2017,05,17,03,46,970.30
2017,05,17,03,47,970.34
2017,05,17,03,48,970.44
2017,05,17,03,49,970.44
2017,05,17,03,50,970.47
2017,05,17,03,51,970.37
2017,05,17,03,52,970.40
2017,05,17,03,53,970.47
2017,05,17,03,54,970.39
2017,05,17,03,55,970.28
2017,05,17,03,56,970.35
2017,05,17,03,57,970.40
2017,05,17,03,58,970.48
2017,05,17,03,59,970.60
2017,05,17,04,00,970.47
2017,05,17,04,01,970.41
2017,05,17,04,02,970.54
2017,05,17,04,03,970.57
2017,05,17,04,04,970.61
2017,05,17,04,05,970.57
2017,05,17,04,06,970.62
2017,05,17,04,07,970.74
2017,05,17,04,08,970.71
2017,05,17,04,09,970.67
2017,05,17,04,10,970.67
2017,05,17,04,11,970.71
2017,05,17,04,12,970.68
2017,05,17,04,13,970.82
2017,05,17,04,14,970.88
2017,05,17,04,15,970.84
2017,05,17,04,16,970.81
2017,05,17,04,17,970.77
2017,05,17,04,18,970.68
2017,05,17,04,19,970.77
2017,05,17,04,20,970.64
2017,05,17,04,21,970.67
2017,05,17,04,22,970.72
2017,05,17,04,23,970.80
2017,05,17,04,24,970.70
2017,05,17,04,25,970.64
2017,05,17,04,26,970.60
2017,05,17,04,27,970.55
2017,05,17,04,28,970.68
2017,05,17,04,29,970.74
2017,05,17,04,30,970.71
2017,05,17,04,31,970.72
2017,05,17,04,32,970.80
2017,05,17,04,33,970.67
2017,05,17,04,34,970.73
2017,05,17,04,35,970.88
2017,05,17,04,36,970.84
2017,05,17,04,37,970.87
2017,05,17,04,38,970.80
2017,05,17,04,39,970.73
2017,05,17,04,40,970.87
2017,05,17,04,41,970.68
2017,05,17,04,42,970.74
2017,05,17,04,43,970.75
2017,05,17,04,44,970.84
2017,05,17,04,45,970.84
2017,05,17,04,46,970.84
2017,05,17,04,47,970.84
2017,05,17,04,48,970.85
2017,05,17,04,49,971.01
2017,05,17,04,50,970.98
2017,05,17,04,51,970.98
2017,05,17,04,52,970.96
2017,05,17,04,53,971.12
2017,05,17,04,54,970.89
2017,05,17,04,55,971.00
2017,05,17,04,56,970.95
2017,05,17,04,57,971.02
2017,05,17,04,58,971.14
2017,05,17,04,59,971.03
2017,05,17,05,00,971.17
2017,05,17,05,01,971.06
2017,05,17,05,02,971.22
2017,05,17,05,03,971.25
2017,05,17,05,04,971.24
2017,05,17,05,05,971.15
2017,05,17,05,06,971.06
2017,05,17,05,07,971.11
2017,05,17,05,08,971.05
2017,05,17,05,09,971.05
2017,05,17,05,10,971.12
2017,05,17,05,11,971.12
2017,05,17,05,12,971.15
2017,05,17,05,13,971.16
2017,05,17,05,14,971.22
2017,05,17,05,15,971.15
2017,05,17,05,16,971.18
2017,05,17,05,17,971.16
2017,05,17,05,18,971.25
2017,05,17,05,19,971.26
2017,05,17,05,20,971.33
2017,05,17,05,21,971.42
2017,05,17,05,22,971.43
2017,05,17,05,23,971.51
2017,05,17,05,24,971.33
2017,05,17,05,25,971.40
2017,05,17,05,26,971.44
2017,05,17,05,27,971.40
2017,05,17,05,28,971.51
2017,05,17,05,29,971.39
2017,05,17,05,30,971.39
2017,05,17,05,31,971.42
2017,05,17,05,32,971.50
2017,05,17,05,33,971.37
2017,05,17,05,34,971.56
2017,05,17,05,35,971.52
2017,05,17,05,36,971.56
2017,05,17,05,37,971.59
2017,05,17,05,38,971.60
2017,05,17,05,39,971.46
2017,05,17,05,40,971.52
2017,05,17,05,41,971.57
2017,05,17,05,42,971.61
2017,05,17,05,43,971.52
2017,05,17,05,44,971.56
2017,05,17,05,45,971.60
2017,05,17,05,46,971.66
2017,05,17,05,47,971.72
2017,05,17,05,48,971.69
2017,05,17,05,49,971.72
2017,05,17,05,50,971.76
2017,05,17,05,51,971.69
2017,05,17,05,52,971.72
2017,05,17,05,53,971.67
2017,05,17,05,54,971.86
2017,05,17,05,55,971.83
2017,05,17,05,56,971.79
2017,05,17,05,57,971.82
2017,05,17,05,58,971.72
2017,05,17,05,59,971.73
2017,05,17,06,00,971.85
2017,05,17,06,01,971.67
2017,05,17,06,02,971.76
2017,05,17,06,03,971.79
2017,05,17,06,04,971.76
2017,05,17,06,05,971.80
2017,05,17,06,06,971.86
2017,05,17,06,07,971.84
2017,05,17,06,08,971.99
2017,05,17,06,09,971.83
2017,05,17,06,10,971.86
2017,05,17,06,11,971.93
2017,05,17,06,12,972.03
2017,05,17,06,13,971.93
2017,05,17,06,14,971.90
2017,05,17,06,15,972.03
2017,05,17,06,16,971.99
2017,05,17,06,17,971.92
2017,05,17,06,18,971.80
2017,05,17,06,19,971.96
2017,05,17,06,20,972.00
2017,05,17,06,21,972.00
2017,05,17,06,22,972.03
2017,05,17,06,23,971.96
2017,05,17,06,24,971.90
2017,05,17,06,25,972.07
2017,05,17,06,26,972.16
2017,05,17,06,27,972.06
2017,05,17,06,28,972.10
2017,05,17,06,29,972.10
2017,05,17,06,30,972.15
2017,05,17,06,31,971.97
2017,05,17,06,32,972.15
2017,05,17,06,33,972.10
2017,05,17,06,34,972.10
2017,05,17,06,35,972.13
2017,05,17,06,36,972.10
2017,05,17,06,37,972.16
2017,05,17,06,38,972.13
2017,05,17,06,39,972.20
2017,05,17,06,40,972.11
2017,05,17,06,41,972.33
2017,05,17,06,42,972.29
2017,05,17,06,43,972.20
2017,05,17,06,44,972.23
2017,05,17,06,45,972.30
2017,05,17,06,46,972.40
2017,05,17,06,47,972.43
2017,05,17,06,48,972.33
2017,05,17,06,49,972.40
2017,05,17,06,50,972.37
2017,05,17,06,51,972.37
2017,05,17,06,52,972.40
2017,05,17,06,53,972.46
2017,05,17,06,54,972.40
2017,05,17,06,55,972.37
2017,05,17,06,56,972.44
2017,05,17,06,57,972.38
2017,05,17,06,58,972.47
2017,05,17,06,59,972.50
2017,05,17,07,00,972.54
2017,05,17,07,01,972.63
2017,05,17,07,02,972.50
2017,05,17,07,03,972.50
2017,05,17,07,04,972.44
2017,05,17,07,05,972.47
2017,05,17,07,06,972.50
2017,05,17,07,07,972.44
2017,05,17,07,08,972.41
2017,05,17,07,09,972.50
2017,05,17,07,10,972.50
2017,05,17,07,11,972.56
2017,05,17,07,12,972.46
2017,05,17,07,13,972.67
2017,05,17,07,14,972.64
2017,05,17,07,15,972.57
2017,05,17,07,16,972.65
2017,05,17,07,17,972.83
2017,05,17,07,18,972.73
2017,05,17,07,19,972.91
2017,05,17,07,20,972.83
2017,05,17,07,21,972.78
2017,05,17,07,22,973.01
2017,05,17,07,23,972.98
2017,05,17,07,24,973.05
2017,05,17,07,25,972.99
2017,05,17,07,26,973.08
2017,05,17,07,27,973.05
2017,05,17,07,28,973.01
2017,05,17,07,29,972.98
2017,05,17,07,30,973.06
2017,05,17,07,31,973.18
2017,05,17,07,32,973.14
2017,05,17,07,33,973.08
2017,05,17,07,34,973.08
2017,05,17,07,35,973.11
2017,05,17,07,36,973.18
2017,05,17,07,37,973.15
2017,05,17,07,38,973.12
2017,05,17,07,39,973.27
2017,05,17,07,40,973.16
2017,05,17,07,41,973.38
2017,05,17,07,42,973.35
2017,05,17,07,43,973.38
2017,05,17,07,44,973.45
2017,05,17,07,45,973.38
2017,05,17,07,46,973.32
2017,05,17,07,47,973.38
2017,05,17,07,48,973.39
2017,05,17,07,49,973.48
2017,05,17,07,50,973.38
2017,05,17,07,51,973.36
2017,05,17,07,52,973.52
2017,05,17,07,53,973.45
2017,05,17,07,54,973.49
2017,05,17,07,55,973.53
2017,05,17,07,56,973.61
2017,05,17,07,57,973.49
2017,05,17,07,58,973.53
2017,05,17,07,59,973.63
2017,05,17,08,00,973.82
2017,05,17,08,01,973.76
2017,05,17,08,02,973.65
2017,05,17,08,03,973.69
2017,05,17,08,04,973.69
2017,05,17,08,05,973.72
2017,05,17,08,06,973.65
2017,05,17,08,07,973.73
2017,05,17,08,08,973.85
2017,05,17,08,09,973.70
2017,05,17,08,10,973.78
2017,05,17,08,11,973.66
2017,05,17,08,12,973.83
2017,05,17,08,13,973.93
2017,05,17,08,14,973.96
2017,05,17,08,15,973.93
2017,05,17,08,16,973.88
2017,05,17,08,17,973.72
2017,05,17,08,18,973.83
2017,05,17,08,19,973.93
2017,05,17,08,20,973.96
2017,05,17,08,21,973.95
2017,05,17,08,22,973.83
2017,05,17,08,23,973.93
2017,05,17,08,24,973.92
2017,05,17,08,25,973.82
2017,05,17,08,26,973.83
2017,05,17,08,27,973.93
2017,05,17,08,28,973.89
2017,05,17,08,29,973.89
2017,05,17,08,30,973.92
2017,05,17,08,31,973.82
2017,05,17,08,32,973.80
2017,05,17,08,33,973.99
2017,05,17,08,34,974.09
2017,05,17,08,35,973.89
2017,05,17,08,36,973.93
2017,05,17,08,37,973.99
2017,05,17,08,38,974.06
2017,05,17,08,39,974.04
2017,05,17,08,40,974.16
2017,05,17,08,41,974.06
2017,05,17,08,42,974.02
2017,05,17,08,43,973.83
2017,05,17,08,44,974.06
2017,05,17,08,45,974.13
2017,05,17,08,46,974.16
2017,05,17,08,47,974.20
2017,05,17,08,48,974.16
2017,05,17,08,49,974.26
2017,05,17,08,50,974.23
2017,05,17,08,51,974.26
2017,05,17,08,52,974.17
2017,05,17,08,53,974.31
2017,05,17,08,54,974.43
2017,05,17,08,55,974.40
2017,05,17,08,56,974.40
2017,05,17,08,57,974.30
2017,05,17,08,58,974.33
2017,05,17,08,59,974.30
2017,05,17,09,00,974.47
2017,05,17,09,01,974.37
2017,05,17,09,02,974.40
2017,05,17,09,03,974.37
2017,05,17,09,04,974.47
2017,05,17,09,05,974.37
2017,05,17,09,06,974.20
2017,05,17,09,07,974.27
2017,05,17,09,08,974.50
2017,05,17,09,09,974.47
2017,05,17,09,10,974.57
2017,05,17,09,11,974.43
2017,05,17,09,12,974.57
2017,05,17,09,13,974.50
2017,05,17,09,14,974.54
2017,05,17,09,15,974.43
2017,05,17,09,16,974.47
2017,05,17,09,17,974.43
2017,05,17,09,18,974.49
2017,05,17,09,19,974.37
2017,05,17,09,20,974.47
2017,05,17,09,21,974.50
2017,05,17,09,22,974.60
2017,05,17,09,23,974.54
2017,05,17,09,24,974.53
2017,05,17,09,25,974.43
2017,05,17,09,26,974.60
2017,05,17,09,27,974.57
2017,05,17,09,28,974.57
2017,05,17,09,29,974.57
2017,05,17,09,30,974.37
2017,05,17,09,31,974.37
2017,05,17,09,32,974.54
2017,05,17,09,33,974.50
2017,05,17,09,34,974.50
2017,05,17,09,35,974.47
2017,05,17,09,36,974.60
2017,05,17,09,37,974.47
2017,05,17,09,38,974.47
2017,05,17,09,39,974.64
2017,05,17,09,40,974.50
2017,05,17,09,41,974.54
2017,05,17,09,42,974.50
2017,05,17,09,43,974.50
2017,05,17,09,44,974.60
2017,05,17,09,45,974.47
2017,05,17,09,46,974.50
2017,05,17,09,47,974.40
2017,05,17,09,48,974.64
2017,05,17,09,49,974.60
2017,05,17,09,50,974.54
2017,05,17,09,51,974.57
2017,05,17,09,52,974.54
2017,05,17,09,53,974.60
2017,05,17,09,54,974.64
2017,05,17,09,55,974.57
2017,05,17,09,56,974.64
2017,05,17,09,57,974.60
2017,05,17,09,58,974.50
2017,05,17,09,59,974.60
2017,05,17,10,00,974.70
2017,05,17,10,01,974.64
2017,05,17,10,02,974.50
2017,05,17,10,03,974.77
2017,05,17,10,04,974.64
2017,05,17,10,05,974.64
2017,05,17,10,06,974.70
2017,05,17,10,07,974.64
2017,05,17,10,08,974.64
2017,05,17,10,09,974.67
2017,05,17,10,10,974.77
2017,05,17,10,11,974.70
2017,05,17,10,12,974.70
2017,05,17,10,13,974.70
2017,05,17,10,14,974.70
2017,05,17,10,15,974.74
2017,05,17,10,16,974.77
2017,05,17,10,17,974.98
2017,05,17,10,18,974.84
2017,05,17,10,19,974.74
2017,05,17,10,20,974.94
2017,05,17,10,21,975.04
2017,05,17,10,22,974.84
2017,05,17,10,23,974.91
2017,05,17,10,24,974.93
2017,05,17,10,25,974.84
2017,05,17,10,26,974.84
2017,05,17,10,27,974.84
2017,05,17,10,28,974.94
2017,05,17,10,29,974.81
2017,05,17,10,30,974.98
2017,05,17,10,31,974.77
2017,05,17,10,32,975.11
2017,05,17,10,33,975.04
2017,05,17,10,34,974.84
2017,05,17,10,35,974.98
2017,05,17,10,36,974.77
2017,05,17,10,37,974.77
2017,05,17,10,38,974.84
2017,05,17,10,39,974.97
2017,05,17,10,40,974.84
2017,05,17,10,41,974.91
2017,05,17,10,42,975.04
2017,05,17,10,43,974.91
2017,05,17,10,44,974.98
2017,05,17,10,45,974.98
2017,05,17,10,46,975.04
2017,05,17,10,47,974.98
2017,05,17,10,48,974.91
2017,05,17,10,49,974.94
2017,05,17,10,50,974.92
2017,05,17,10,51,975.04
2017,05,17,10,52,975.14
2017,05,17,10,53,975.25
2017,05,17,10,54,975.18
2017,05,17,10,55,975.07
2017,05,17,10,56,974.94
2017,05,17,10,57,975.01
2017,05,17,10,58,975.11
2017,05,17,10,59,975.21
2017,05,17,11,00,975.11
2017,05,17,11,01,975.18
2017,05,17,11,02,975.18
2017,05,17,11,03,975.35
2017,05,17,11,04,975.25
2017,05,17,11,05,975.18
2017,05,17,11,06,975.25
2017,05,17,11,07,975.31
2017,05,17,11,08,975.21
2017,05,17,11,09,975.25
2017,05,17,11,10,975.18
2017,05,17,11,11,975.25
2017,05,17,11,12,975.35
2017,05,17,11,13,975.01
2017,05,17,11,14,975.25
2017,05,17,11,15,975.34
2017,05,17,11,16,975.14
2017,05,17,11,17,975.31
2017,05,17,11,18,975.31
2017,05,17,11,19,975.25
2017,05,17,11,20,975.25
2017,05,17,11,21,975.25
2017,05,17,11,22,975.21
2017,05,17,11,23,975.21
2017,05,17,11,24,975.28
2017,05,17,11,25,975.28
2017,05,17,11,26,975.25
2017,05,17,11,27,975.31
2017,05,17,11,28,975.14
2017,05,17,11,29,975.31
2017,05,17,11,30,975.25
2017,05,17,11,31,975.31
2017,05,17,11,32,975.21
2017,05,17,11,33,975.25
2017,05,17,11,34,975.45
2017,05,17,11,35,975.28
2017,05,17,11,36,975.28
2017,05,17,11,37,975.31
2017,05,17,11,38,975.31
2017,05,17,11,39,975.38
2017,05,17,11,40,975.28
2017,05,17,11,41,975.45
2017,05,17,11,42,975.35
2017,05,17,11,43,975.42
2017,05,17,11,44,975.35
2017,05,17,11,45,975.52
2017,05,17,11,46,975.48
2017,05,17,11,47,975.42
2017,05,17,11,48,975.38
2017,05,17,11,49,975.45
2017,05,17,11,50,975.28
2017,05,17,11,51,975.31
2017,05,17,11,52,975.52
2017,05,17,11,53,975.45
2017,05,17,11,54,975.42
2017,05,17,11,55,975.38
2017,05,17,11,56,975.38
2017,05,17,11,57,975.42
2017,05,17,11,58,975.38
2017,05,17,11,59,975.31
2017,05,17,12,00,975.38
2017,05,17,12,01,975.31
2017,05,17,12,02,975.48
2017,05,17,12,03,975.48
2017,05,17,12,04,975.52
2017,05,17,12,05,975.59
2017,05,17,12,06,975.62
2017,05,17,12,07,975.25
2017,05,17,12,08,975.45
2017,05,17,12,09,975.45
2017,05,17,12,10,975.52
2017,05,17,12,11,975.38
2017,05,17,12,12,975.45
2017,05,17,12,13,975.42
2017,05,17,12,14,975.31
2017,05,17,12,15,975.45
2017,05,17,12,16,975.38
2017,05,17,12,17,975.48
2017,05,17,12,18,975.45
2017,05,17,12,19,975.42
2017,05,17,12,20,975.52
2017,05,17,12,21,975.62
2017,05,17,12,22,975.55
2017,05,17,12,23,975.62
2017,05,17,12,24,975.48
2017,05,17,12,25,975.26
2017,05,17,12,26,975.35
2017,05,17,12,27,975.38
2017,05,17,12,28,975.39
2017,05,17,12,29,975.52
2017,05,17,12,30,975.48
2017,05,17,12,31,975.38
2017,05,17,12,32,975.38
2017,05,17,12,33,975.42
2017,05,17,12,34,975.59
2017,05,17,12,35,975.45
2017,05,17,12,36,975.55
2017,05,17,12,37,975.52
2017,05,17,12,38,975.48
2017,05,17,12,39,975.42
2017,05,17,12,40,975.31
2017,05,17,12,41,975.65
2017,05,17,12,42,975.52
2017,05,17,12,43,975.38
2017,05,17,12,44,975.45
2017,05,17,12,45,975.45
2017,05,17,12,46,975.42
2017,05,17,12,47,975.38
2017,05,17,12,48,975.42
2017,05,17,12,49,975.35
2017,05,17,12,50,975.35
2017,05,17,12,51,975.52
2017,05,17,12,52,975.45
2017,05,17,12,53,975.42
2017,05,17,12,54,975.48
2017,05,17,12,55,975.31
2017,05,17,12,56,975.45
2017,05,17,12,57,975.55
2017,05,17,12,58,975.48
2017,05,17,12,59,975.55
2017,05,17,13,00,975.55
2017,05,17,13,01,975.66
2017,05,17,13,02,975.79
2017,05,17,13,03,975.62
2017,05,17,13,04,975.65
2017,05,17,13,05,975.72
2017,05,17,13,06,975.69
2017,05,17,13,07,975.65
2017,05,17,13,08,975.52
2017,05,17,13,09,975.72
2017,05,17,13,10,975.62
2017,05,17,13,11,975.48
2017,05,17,13,12,975.62
2017,05,17,13,13,975.52
2017,05,17,13,14,975.62
2017,05,17,13,15,975.62
2017,05,17,13,16,975.65
2017,05,17,13,17,975.65
2017,05,17,13,18,975.65
2017,05,17,13,19,975.62
2017,05,17,13,20,975.52
2017,05,17,13,21,975.65
2017,05,17,13,22,975.72
2017,05,17,13,23,975.75
2017,05,17,13,24,975.86
2017,05,17,13,25,975.62
2017,05,17,13,26,975.72
2017,05,17,13,27,975.72
2017,05,17,13,28,975.75
2017,05,17,13,29,975.75
2017,05,17,13,30,975.89
2017,05,17,13,31,975.86
2017,05,17,13,32,975.89
2017,05,17,13,33,975.86
2017,05,17,13,34,975.86
2017,05,17,13,35,975.86
2017,05,17,13,36,975.96
2017,05,17,13,37,976.03
2017,05,17,13,38,976.13
2017,05,17,13,39,975.89
2017,05,17,13,40,975.86
2017,05,17,13,41,976.06
2017,05,17,13,42,975.86
2017,05,17,13,43,975.86
2017,05,17,13,44,976.09
2017,05,17,13,45,975.96
2017,05,17,13,46,975.99
2017,05,17,13,47,976.09
2017,05,17,13,48,976.06
2017,05,17,13,49,976.06
2017,05,17,13,50,975.96
2017,05,17,13,51,975.96
2017,05,17,13,52,975.92
2017,05,17,13,53,976.13
2017,05,17,13,54,976.03
2017,05,17,13,55,976.06
2017,05,17,13,56,976.03
2017,05,17,13,57,975.96
2017,05,17,13,58,976.12
2017,05,17,13,59,976.06
2017,05,17,14,00,975.89
2017,05,17,14,01,976.13
2017,05,17,14,02,976.19
2017,05,17,14,03,976.09
2017,05,17,14,04,976.19
2017,05,17,14,05,976.23
2017,05,17,14,06,976.03
2017,05,17,14,07,976.03
2017,05,17,14,08,976.13
2017,05,17,14,09,976.09
2017,05,17,14,10,976.06
2017,05,17,14,11,975.99
2017,05,17,14,12,976.03
2017,05,17,14,13,975.99
2017,05,17,14,14,976.03
2017,05,17,14,15,975.89
2017,05,17,14,16,976.16
2017,05,17,14,17,976.06
2017,05,17,14,18,975.99
2017,05,17,14,19,975.99
2017,05,17,14,20,975.99
2017,05,17,14,21,976.06
2017,05,17,14,22,976.13
2017,05,17,14,23,975.96
2017,05,17,14,24,975.92
2017,05,17,14,25,975.96
2017,05,17,14,26,975.89
2017,05,17,14,27,975.96
2017,05,17,14,28,975.99
2017,05,17,14,29,976.13
2017,05,17,14,30,975.99
2017,05,17,14,31,975.96
2017,05,17,14,32,976.09
2017,05,17,14,33,975.99
2017,05,17,14,34,975.86
2017,05,17,14,35,975.96
2017,05,17,14,36,975.96
2017,05,17,14,37,975.92
2017,05,17,14,38,975.99
2017,05,17,14,39,976.03
2017,05,17,14,40,975.92
2017,05,17,14,41,976.06
2017,05,17,14,42,976.13
2017,05,17,14,43,976.13
2017,05,17,14,44,976.23
2017,05,17,14,45,976.16
2017,05,17,14,46,976.23
2017,05,17,14,47,976.13
2017,05,17,14,48,976.06
2017,05,17,14,49,976.06
2017,05,17,14,50,976.09
2017,05,17,14,51,976.30
2017,05,17,14,52,976.23
2017,05,17,14,53,976.36
2017,05,17,14,54,976.09
2017,05,17,14,55,975.96
2017,05,17,14,56,976.03
2017,05,17,14,57,976.06
2017,05,17,14,58,976.22
2017,05,17,14,59,976.30
2017,05,17,15,00,976.30
2017,05,17,15,01,976.23
2017,05,17,15,02,976.23
2017,05,17,15,03,976.30
2017,05,17,15,04,976.40
2017,05,17,15,05,976.26
2017,05,17,15,06,976.33
2017,05,17,15,07,976.30
2017,05,17,15,08,976.23
2017,05,17,15,09,976.19
2017,05,17,15,10,976.26
2017,05,17,15,11,976.16
2017,05,17,15,12,976.26
2017,05,17,15,13,976.33
2017,05,17,15,14,976.16
2017,05,17,15,15,976.36
2017,05,17,15,16,976.23
2017,05,17,15,17,976.06
2017,05,17,15,18,976.23
2017,05,17,15,19,976.13
2017,05,17,15,20,976.23
2017,05,17,15,21,975.93
2017,05,17,15,22,976.13
2017,05,17,15,23,976.23
2017,05,17,15,24,976.26
2017,05,17,15,25,976.16
2017,05,17,15,26,976.13
2017,05,17,15,27,976.16
2017,05,17,15,28,976.09
2017,05,17,15,29,976.23
2017,05,17,15,30,976.23
2017,05,17,15,31,976.26
2017,05,17,15,32,976.19
2017,05,17,15,33,976.13
2017,05,17,15,34,976.13
2017,05,17,15,35,976.23
2017,05,17,15,36,976.13
2017,05,17,15,37,976.09
2017,05,17,15,38,976.19
2017,05,17,15,39,976.26
2017,05,17,15,40,976.30
2017,05,17,15,41,976.23
2017,05,17,15,42,976.26
2017,05,17,15,43,976.23
2017,05,17,15,44,976.23
2017,05,17,15,45,976.19
2017,05,17,15,46,976.23
2017,05,17,15,47,976.26
2017,05,17,15,48,976.19
2017,05,17,15,49,976.09
2017,05,17,15,50,976.23
2017,05,17,15,51,976.09
2017,05,17,15,52,976.03
2017,05,17,15,53,976.16
2017,05,17,15,54,976.13
2017,05,17,15,55,976.09
2017,05,17,15,56,976.09
2017,05,17,15,57,976.16
2017,05,17,15,58,976.19
2017,05,17,15,59,976.16
2017,05,17,16,00,976.23
2017,05,17,16,01,976.00
2017,05,17,16,02,976.13
2017,05,17,16,03,976.16
2017,05,17,16,04,976.19
2017,05,17,16,05,976.16
2017,05,17,16,06,976.30
2017,05,17,16,07,976.26
2017,05,17,16,08,976.23
2017,05,17,16,09,976.30
2017,05,17,16,10,976.10
2017,05,17,16,11,976.09
2017,05,17,16,12,976.06
2017,05,17,16,13,976.13
2017,05,17,16,14,976.03
2017,05,17,16,15,975.96
2017,05,17,16,16,976.16
2017,05,17,16,17,976.23
2017,05,17,16,18,976.19
2017,05,17,16,19,976.23
2017,05,17,16,20,976.36
2017,05,17,16,21,976.26
2017,05,17,16,22,976.30
2017,05,17,16,23,976.20
2017,05,17,16,24,976.26
2017,05,17,16,25,976.13
2017,05,17,16,26,976.16
2017,05,17,16,27,976.16
2017,05,17,16,28,976.26
2017,05,17,16,29,976.19
2017,05,17,16,30,976.16
2017,05,17,16,31,976.26
2017,05,17,16,32,976.09
2017,05,17,16,33,976.16
2017,05,17,16,34,976.09
2017,05,17,16,35,976.13
2017,05,17,16,36,976.33